Tracking 25378 objects as of 22-Jan-2022
HD Live streaming from Space Station
objects crossing your sky now

ONEWEB-0020

Track ONEWEB-0020 now!
10-day predictions
ONEWEB-0020 is classified as:


NORAD ID: 45133
Int'l Code: 2019-071K
Perigee: 1,227.1 km
Apogee: 1,230.7 km
Inclination: 87.9 °
Period: 109.9 minutes
Semi major axis: 7599 km
RCS: Unknown
Launch date: November 2, 2019
Source: United States (US)
Launch site: WALLOPS ISLAND (WLPIS)
aabbcc
Your satellite tracking list
Your tracking list is empty




NASA's NSSDC Master Catalog

Two Line Element Set (TLE):
1 45133U 20008C   22022.48329382 -.00000579  00000-0 -16956-2 0  9995
2 45133  87.8883 355.6842 0002365 103.4784 256.6607 13.10372244 98709
Source of the keplerian elements: AFSPC